Flag for U.S.A. Weather past 2 weeks in Glennallen, Alaska, U.S.A.

Now
27 °F

Clear.


Feels Like: 19 °F
Forecast: 9 / 42 °F
Wind: 8 mph from South

Location: Gulkana Airport

Current Time: Apr 1, 2015 at 3:38:41 AM

Latest Report: Apr 1, 2015 at 2:53 AM


Visibility: 10 mi

Pressure: 29.81 "Hg

Humidity: 85%

Dew point: 23 °F

Location of GlennallenLocation

Historic Weather in Glennallen — Graph

°F

Glennallen temperature yesterday

Maximum temperature yesterday: 42 °F (at 5:53 PM)
Minimum temperature yesterday: 25 °F (at 4:53 AM)
Average temperature yesterday: 34 °F

Past Weeks' High & Low Weather Summary

 TemperatureHumidityPressure
High46 °F (Mar 30, 4:53 PM)88% (Mar 23, 5:53 AM)30.11 "Hg (Mar 23, 5:53 AM)
Low-1 °F (Mar 21, 7:53 AM)29% (Mar 17, 4:53 PM)29.44 "Hg (Mar 29, 4:53 AM)
Average26 °F61%29.81 "Hg
* Reported Mar 17 1:53 AM — Apr 1 1:53 AM, Glennallen, Weather by CustomWeather, © 2015

Note: Actual official high and low records may vary slightly from our data, if they occured in-between our weather recording intervals... More about our weather records

Advertising

Glennallen weather history for previous 24 hours

 ConditionsComfort  
Time TempWeatherWind HumidityBarometerVisibility
1:53 AM
Wed, Apr 1
29 °FClear.8 mph79%29.79 "Hg10 mi
12:53 AM32 °FClear.8 mph73%29.77 "Hg10 mi
11:53 PM
Tue, Mar 31
33 °FClear.10 mph70%29.76 "Hg10 mi
10:53 PM34 °FClear.7 mph64%29.75 "Hg10 mi
9:53 PM34 °FClear.8 mph61%29.73 "Hg10 mi
8:53 PM37 °FSunny.5 mph52%29.72 "Hg10 mi
7:53 PM40 °FSunny.13 mph49%29.70 "Hg10 mi
6:53 PM41 °FSunny.16 mph47%29.68 "Hg10 mi
5:53 PM42 °FPartly sunny.14 mph43%29.67 "Hg10 mi
4:53 PM40 °FPassing clouds.12 mph51%29.66 "Hg10 mi
3:53 PM40 °FSunny.14 mph55%29.66 "Hg10 mi
2:53 PM41 °FSunny.13 mph53%29.65 "Hg10 mi
1:53 PM40 °FSunny.6 mph51%29.65 "Hg10 mi
12:53 PM39 °FPassing clouds.8 mph55%29.63 "Hg10 mi
11:53 AM37 °FPassing clouds.7 mph60%29.63 "Hg10 mi
10:53 AM33 °FOvercast.7 mph61%29.63 "Hg10 mi
9:53 AM31 °FOvercast.6 mph64%29.61 "Hg10 mi
8:53 AM29 °FOvercast.6 mph69%29.61 "Hg10 mi
7:53 AM27 °FOvercast.6 mph72%29.59 "Hg10 mi
6:53 AM26 °FOvercast.5 mph71%29.58 "Hg10 mi
5:53 AM26 °FOvercast.3 mph71%29.57 "Hg10 mi
4:53 AM25 °FOvercast.3 mph75%29.56 "Hg10 mi
3:53 AM27 °FPassing clouds.3 mph66%29.56 "Hg10 mi
Weather by CustomWeather, © 2015

See weather overviewHow to use our weather pages